This is the latest recevied weather packets stored in our database for station/object DO0SOB-11. If no packets are shown the sender has not sent any weather packets the latest 10 day(s).
| Time | Temp. | Humidity | Pressure | Rain* | Wind** | Luminosity | Snow |
|---|---|---|---|---|---|---|---|
| 1777568365 | 15.56° C | 46% | 988.1 hPa | - | - | - | - |
| 1777567465 | 15° C | 50% | 988 hPa | - | - | - | - |
| 1777566565 | 15.56° C | 42% | 988.2 hPa | - | - | - | - |
| 1777565665 | 16.11° C | 42% | 988.3 hPa | - | - | - | - |
| 1777564765 | 15.56° C | 41% | 988.2 hPa | - | - | - | - |
| 1777563864 | 16.11° C | 40% | 988.3 hPa | - | - | - | - |
| 1777562964 | 16.11° C | 39% | 988.3 hPa | - | - | - | - |
| 1777562064 | 15.56° C | 37% | 988.4 hPa | - | - | - | - |
| 1777561164 | 15.56° C | 36% | 988.5 hPa | - | - | - | - |
| 1777560264 | 15.56° C | 35% | 988.5 hPa | - | - | - | - |
| 1777559364 | 15.56° C | 37% | 988.7 hPa | - | - | - | - |
| 1777558464 | 15° C | 33% | 988.9 hPa | - | - | - | - |
| 1777557564 | 15.56° C | 34% | 988.9 hPa | - | - | - | - |
| 1777556664 | 15.56° C | 33% | 989 hPa | - | - | - | - |
| 1777555764 | 15.56° C | 32% | 989 hPa | - | - | - | - |
| 1777554864 | 15.56° C | 31% | 989.1 hPa | - | - | - | - |
| 1777553964 | 14.44° C | 31% | 989.4 hPa | - | - | - | - |
| 1777553064 | 14.44° C | 32% | 989.5 hPa | - | - | - | - |
| 1777552164 | 14.44° C | 31% | 989.7 hPa | - | - | - | - |
| 1777551263 | 14.44° C | 33% | 989.8 hPa | - | - | - | - |
| 1777550363 | 14.44° C | 36% | 989.8 hPa | - | - | - | - |
| 1777549463 | 14.44° C | 37% | 989.9 hPa | - | - | - | - |
| 1777548563 | 13.33° C | 34% | 990.1 hPa | - | - | - | - |
| 1777547663 | 13.33° C | 35% | 990.2 hPa | - | - | - | - |
| 1777546763 | 13.89° C | 36% | 990.3 hPa | - | - | - | - |
* Rain since midnight (hover to see other rain measurements)
** Current wind speed in m/s (hover to see current wind gust speed)